• In Uzbekistan
  • List of Countries
  • For 7 days
  • Water Temperature
  • Satellite Maps
  • Weather Map
  • Weather Widgets
  • user-avatar
    Login

    Hourly Weather Tskhinvali

    Today, 23 August, Wednesday

    Time Temperature Precipitation Wind Pressure Humidity
    00:00 +20°C° 0 mm 1 mps 680 mmHg 58%
    01:00 +20°C° 0 mm 1 mps 680 mmHg 58%
    02:00 +20°C° 0 mm 1 mps 680 mmHg 57%
    03:00 +19°C° 0 mm 2 mps 680 mmHg 57%
    04:00 +19°C° 0 mm 2 mps 680 mmHg 57%
    05:00 +19°C° 0 mm 2 mps 680 mmHg 57%
    06:00 +20°C° 0 mm 1 mps 680 mmHg 57%
    07:00 +23°C° 0 mm 2 mps 681 mmHg 51%
    08:00 +26°C° 0 mm 3 mps 681 mmHg 44%
    09:00 +29°C° 0 mm 4 mps 682 mmHg 37%
    10:00 +30°C° 0 mm 4 mps 682 mmHg 34%
    11:00 +32°C° 0 mm 4 mps 682 mmHg 31%
    12:00 +33°C° 0 mm 4 mps 683 mmHg 28%
    13:00 +33°C° 0 mm 4 mps 683 mmHg 30%
    14:00 +33°C° 0 mm 4 mps 683 mmHg 32%
    15:00 +32°C° 0 mm 4 mps 683 mmHg 35%
    16:00 +29°C° 0.2 mm 4 mps 683 mmHg 47%
    17:00 +27°C° 0.2 mm 4 mps 683 mmHg 59%
    18:00 +25°C° 0.2 mm 3 mps 683 mmHg 71%
    19:00 +22°C° 0 mm 3 mps 683 mmHg 78%
    20:00 +21°C° 0 mm 2 mps 684 mmHg 85%
    21:00 +20°C° 0 mm 1 mps 684 mmHg 92%
    22:00 +19°C° 0 mm 1 mps 684 mmHg 91%
    23:00 +19°C° 0 mm 1 mps 684 mmHg 89%

    Tomorrow, 24 August, Thursday

    Time Temperature Precipitation Wind Pressure Humidity
    00:00 +19°C° 0 mm 1 mps 684 mmHg 88%
    01:00 +18°C° 0 mm 1 mps 684 mmHg 87%
    02:00 +18°C° 0 mm 1 mps 684 mmHg 86%
    03:00 +18°C° 0 mm 1 mps 684 mmHg 85%
    04:00 +18°C° 0 mm 1 mps 684 mmHg 82%
    05:00 +18°C° 0 mm 1 mps 684 mmHg 80%
    06:00 +19°C° 0 mm 1 mps 684 mmHg 78%
    07:00 +21°C° 0 mm 1 mps 685 mmHg 68%
    08:00 +24°C° 0 mm 1 mps 685 mmHg 59%
    09:00 +27°C° 0 mm 1 mps 686 mmHg 50%
    10:00 +28°C° 0 mm 2 mps 686 mmHg 44%
    11:00 +30°C° 0 mm 3 mps 686 mmHg 38%
    12:00 +32°C° 0 mm 4 mps 686 mmHg 33%
    13:00 +32°C° 0 mm 4 mps 686 mmHg 33%
    14:00 +32°C° 0 mm 4 mps 686 mmHg 33%
    15:00 +32°C° 0 mm 4 mps 686 mmHg 33%
    16:00 +30°C° 0.1 mm 4 mps 686 mmHg 39%
    17:00 +28°C° 0.1 mm 3 mps 686 mmHg 46%
    18:00 +26°C° 0.1 mm 2 mps 685 mmHg 52%
    19:00 +24°C° 0 mm 2 mps 685 mmHg 61%
    20:00 +21°C° 0 mm 2 mps 685 mmHg 69%
    21:00 +20°C° 0 mm 1 mps 685 mmHg 77%
    22:00 +19°C° 0 mm 1 mps 686 mmHg 77%
    23:00 +19°C° 0 mm 1 mps 686 mmHg 77%

    Day after tomorrow, 25 August, Friday

    Time Temperature Precipitation Wind Pressure Humidity
    00:00 +19°C° 0 mm 1 mps 686 mmHg 76%
    01:00 +18°C° 0 mm 1 mps 686 mmHg 76%
    02:00 +18°C° 0 mm 1 mps 686 mmHg 76%
    03:00 +16°C° 0 mm 1 mps 685 mmHg 76%
    04:00 +18°C° 0 mm 1 mps 686 mmHg 74%
    05:00 +18°C° 0 mm 1 mps 686 mmHg 73%
    06:00 +18°C° 0 mm 1 mps 686 mmHg 72%
    07:00 +21°C° 0 mm 1 mps 686 mmHg 63%
    08:00 +24°C° 0 mm 1 mps 687 mmHg 53%
    09:00 +27°C° 0 mm 1 mps 687 mmHg 44%
    10:00 +28°C° 0 mm 2 mps 687 mmHg 39%
    11:00 +29°C° 0 mm 2 mps 687 mmHg 34%
    12:00 +30°C° 0 mm 3 mps 687 mmHg 29%
    13:00 +30°C° 0 mm 3 mps 687 mmHg 30%
    14:00 +30°C° 0 mm 3 mps 687 mmHg 30%
    15:00 +30°C° 0 mm 3 mps 686 mmHg 30%
    16:00 +28°C° 0 mm 3 mps 686 mmHg 40%
    17:00 +27°C° 0 mm 2 mps 686 mmHg 50%
    18:00 +25°C° 0 mm 2 mps 686 mmHg 60%
    19:00 +23°C° 0.1 mm 2 mps 686 mmHg 68%
    20:00 +20°C° 0.1 mm 2 mps 686 mmHg 77%
    21:00 +18°C° 0.1 mm 2 mps 686 mmHg 85%
    22:00 +18°C° 0 mm 2 mps 686 mmHg 85%
    23:00 +18°C° 0 mm 1 mps 686 mmHg 84%

    26 August, Saturday

    Time Temperature Precipitation Wind Pressure Humidity
    00:00 +18°C° 0 mm 1 mps 686 mmHg 83%
    01:00 +18°C° 0 mm 1 mps 686 mmHg 80%
    02:00 +16°C° 0 mm 1 mps 686 mmHg 77%
    03:00 +16°C° 0 mm 1 mps 685 mmHg 75%
    04:00 +16°C° 0 mm 1 mps 685 mmHg 71%
    05:00 +16°C° 0 mm 1 mps 685 mmHg 68%
    06:00 +16°C° 0 mm 1 mps 685 mmHg 65%
    07:00 +20°C° 0 mm 1 mps 686 mmHg 56%
    08:00 +23°C° 0 mm 2 mps 686 mmHg 46%
    09:00 +26°C° 0 mm 2 mps 687 mmHg 37%
    10:00 +27°C° 0 mm 2 mps 686 mmHg 33%
    11:00 +28°C° 0 mm 3 mps 686 mmHg 29%
    12:00 +30°C° 0 mm 3 mps 686 mmHg 25%
    13:00 +30°C° 0 mm 3 mps 686 mmHg 25%
    14:00 +30°C° 0 mm 3 mps 686 mmHg 25%
    15:00 +30°C° 0 mm 3 mps 685 mmHg 24%
    16:00 +29°C° 0 mm 2 mps 685 mmHg 31%
    17:00 +27°C° 0 mm 2 mps 685 mmHg 38%
    18:00 +26°C° 0 mm 1 mps 685 mmHg 45%
    19:00 +23°C° 0 mm 1 mps 685 mmHg 53%
    20:00 +20°C° 0 mm 2 mps 685 mmHg 61%
    21:00 +18°C° 0 mm 2 mps 685 mmHg 68%
    22:00 +17°C° 0 mm 2 mps 685 mmHg 68%
    23:00 +17°C° 0 mm 2 mps 684 mmHg 67%

    27 August, Sunday

    Time Temperature Precipitation Wind Pressure Humidity
    00:00 +18°C° 0 mm 1 mps 684 mmHg 66%
    01:00 +16°C° 0 mm 1 mps 684 mmHg 62%
    02:00 +16°C° 0 mm 1 mps 684 mmHg 59%
    03:00 +16°C° 0 mm 1 mps 684 mmHg 56%
    04:00 +16°C° 0 mm 1 mps 684 mmHg 52%
    05:00 +16°C° 0 mm 1 mps 684 mmHg 49%
    06:00 +16°C° 0 mm 2 mps 684 mmHg 45%
    07:00 +19°C° 0 mm 2 mps 684 mmHg 41%
    08:00 +23°C° 0 mm 2 mps 685 mmHg 36%
    09:00 +26°C° 0 mm 2 mps 685 mmHg 32%
    10:00 +27°C° 0 mm 3 mps 685 mmHg 30%
    11:00 +29°C° 0 mm 3 mps 685 mmHg 29%
    12:00 +30°C° 0 mm 4 mps 684 mmHg 28%
    13:00 +30°C° 0 mm 3 mps 684 mmHg 28%
    14:00 +30°C° 0 mm 3 mps 684 mmHg 28%
    15:00 +30°C° 0 mm 3 mps 684 mmHg 28%
    16:00 +29°C° 0 mm 3 mps 684 mmHg 33%
    17:00 +28°C° 0 mm 2 mps 684 mmHg 38%
    18:00 +26°C° 0 mm 1 mps 683 mmHg 43%
    19:00 +24°C° 0 mm 1 mps 683 mmHg 49%
    20:00 +21°C° 0 mm 1 mps 683 mmHg 54%
    21:00 +19°C° 0 mm 1 mps 683 mmHg 60%
    22:00 +19°C° 0 mm 1 mps 683 mmHg 58%
    23:00 +18°C° 0 mm 1 mps 683 mmHg 57%

    28 August, Monday

    Time Temperature Precipitation Wind Pressure Humidity
    00:00 +18°C° 0 mm 1 mps 683 mmHg 55%
    01:00 +18°C° 0 mm 1 mps 683 mmHg 54%
    02:00 +16°C° 0 mm 1 mps 683 mmHg 53%
    03:00 +16°C° 0 mm 1 mps 683 mmHg 51%
    04:00 +16°C° 0 mm 1 mps 683 mmHg 51%
    05:00 +16°C° 0 mm 2 mps 683 mmHg 51%
    06:00 +16°C° 0 mm 2 mps 683 mmHg 50%
    07:00 +19°C° 0 mm 2 mps 683 mmHg 47%
    08:00 +22°C° 0 mm 3 mps 683 mmHg 44%
    09:00 +26°C° 0 mm 3 mps 684 mmHg 40%
    10:00 +27°C° 0 mm 3 mps 684 mmHg 38%
    11:00 +28°C° 0 mm 4 mps 683 mmHg 35%
    12:00 +30°C° 0 mm 4 mps 683 mmHg 33%
    13:00 +30°C° 0 mm 4 mps 683 mmHg 32%
    14:00 +30°C° 0 mm 4 mps 683 mmHg 31%
    15:00 +31°C° 0 mm 3 mps 683 mmHg 30%
    16:00 +29°C° 0 mm 3 mps 682 mmHg 34%
    17:00 +28°C° 0 mm 2 mps 682 mmHg 39%
    18:00 +27°C° 0 mm 2 mps 682 mmHg 43%
    19:00 +24°C° 0 mm 2 mps 682 mmHg 47%
    20:00 +22°C° 0 mm 1 mps 682 mmHg 51%
    21:00 +20°C° 0 mm 1 mps 682 mmHg 55%
    22:00 +19°C° 0 mm 1 mps 682 mmHg 55%
    23:00 +19°C° 0 mm 1 mps 682 mmHg 55%
    Show more